This is the latest recevied weather packets stored in our database for station/object WA1NHP. If no packets are shown the sender has not sent any weather packets the latest 10 day(s).
| Time | Temp. | Humidity | Pressure | Rain* | Wind** | Luminosity | Snow |
|---|---|---|---|---|---|---|---|
| 1777592044 | 9.44° C | 97% | 1023.9 hPa | 0 mm | - | 5 W/m² | - |
| 1777591444 | 9.44° C | 97% | 1023.9 hPa | 0 mm | - | 11 W/m² | - |
| 1777590844 | 9.44° C | 97% | 1023.9 hPa | 0 mm | - | 12 W/m² | - |
| 1777590244 | 9.44° C | 97% | 1023.9 hPa | 0.51 mm | - | 18 W/m² | - |
| 1777589644 | 9.44° C | 97% | 1023.9 hPa | 0.76 mm | - | 9 W/m² | - |
| 1777589044 | 9.44° C | 97% | 1023.9 hPa | 1.02 mm | - | 42 W/m² | - |
| 1777588444 | 9.44° C | 96% | 1023.9 hPa | 1.02 mm | - | 42 W/m² | - |
| 1777587844 | 9.44° C | 96% | 1023.9 hPa | 1.02 mm | - | 42 W/m² | - |
| 1777587244 | 9.44° C | 96% | 1023.9 hPa | 1.02 mm | - | 33 W/m² | - |
| 1777586644 | 9.44° C | 96% | 1023.9 hPa | 0.51 mm | - | 35 W/m² | - |
| 1777586044 | 9.44° C | 96% | 1023.9 hPa | 0.25 mm | - | 32 W/m² | - |
| 1777585444 | 9.44° C | 96% | 1023.9 hPa | 0.25 mm | - | 40 W/m² | - |
| 1777584844 | 10° C | 96% | 1023.9 hPa | 0.25 mm | - | 42 W/m² | - |
| 1777584244 | 10° C | 96% | 1023.9 hPa | 0.25 mm | - | 44 W/m² | - |
| 1777583644 | 10° C | 96% | 1023.9 hPa | 0.25 mm | - | 62 W/m² | - |
| 1777583044 | 10° C | 95% | 1023.9 hPa | 0.25 mm | - | 70 W/m² | - |
| 1777582444 | 10° C | 95% | 1023.9 hPa | 0.25 mm | - | 76 W/m² | - |
| 1777581844 | 10° C | 95% | 1023.9 hPa | 0 mm | - | 42 W/m² | - |
| 1777581244 | 10° C | 93% | 1023.9 hPa | 0 mm | - | 42 W/m² | - |
| 1777580643 | 10° C | 93% | 1023.9 hPa | 0 mm | - | 62 W/m² | - |
| 1777580044 | 10.56° C | 92% | 1023.9 hPa | 0 mm | - | 77 W/m² | - |
| 1777579444 | 10.56° C | 92% | 1023.9 hPa | 0 mm | - | 86 W/m² | - |
| 1777578844 | 10.56° C | 92% | 1023.9 hPa | 0 mm | - | 130 W/m² | - |
| 1777578244 | 10.56° C | 93% | 1023.9 hPa | 0 mm | - | 174 W/m² | - |
| 1777577643 | 10.56° C | 92% | 1023.9 hPa | 0 mm | - | 102 W/m² | - |
* Rain latest hour (hover to see other rain measurements)
** Current wind speed in m/s (hover to see current wind gust speed)